Findlay, OH

2:58 PM EDT on August 21, 2017 (GMT -0400)
Findlay

Weather History for KFDY - February, 2012

Change the Weather History Date:

Sunday, February 19, 2012

  Actual Average Record
Temperature  
Mean Temperature 28 °F -  
Max Temperature 34 °F 38 °F 64 °F (2017)
Min Temperature 23 °F 24 °F -4 °F (1993)
Degree Days  
Heating Degree Days 36    
Moisture  
Dew Point 19 °F    
Average Humidity 70    
Maximum Humidity 81    
Minimum Humidity 56    
Precipitation  
Precipitation 0.00 in - - ()
Sea Level Pressure  
Sea Level Pressure 30.14 in    
Wind  
Wind Speed 9 mph (NE)    
Max Wind Speed 20 mph    
Max Gust Speed 25 mph    
Visibility 10 miles    
Events      
Averages and records for this station are not official NWS values.
T = Trace of Precipitation, MM = Missing Value Source: NWS Daily Summary

Daily Weather History Graph

Daily Weather History Graph

Search for Another Location

Airport or City:

Trip Planner

Search our weather history database for the weather conditions in past years. The results will help you decide how hot, cold, wet, or windy it might be!

Date:

Astronomy

Feb. 19, 2012 Rise Set
Actual Time 7:24 AM EST 6:13 PM EST
Civil Twilight 6:56 AM EST 6:41 PM EST
Nautical Twilight 6:24 AM EST 7:13 PM EST
Astronomical Twilight 5:52 AM EST 7:45 PM EST
Moon 5:45 AM EST (2/19) 4:12 PM EST (2/19)
Length of Visible Light 11h 45m
Length of Day
10h 49m
Waning Crescent, 5% of the Moon is Illuminated
Feb 19
Waning Crescent
Feb 21
New
Feb 29
First Quarter
Mar 8
Full
Mar 14
Last Quarter

Hourly Weather History & Observations

Time (EST) Temp. Windchill Dew Point Humidity Pressure Visibility Wind Dir Wind Speed Gust Speed Precip Events Conditions
12:53 AM 25.0 °F 18.1 °F 19.0 °F 78% 30.18 in 10.0 mi NNE 5.8 mph - N/A   Clear
1:53 AM 25.0 °F 19.3 °F 19.0 °F 78% 30.19 in 10.0 mi NE 4.6 mph - N/A   Clear
2:53 AM 25.0 °F 17.1 °F 18.0 °F 75% 30.16 in 10.0 mi NE 6.9 mph - N/A   Clear
3:53 AM 24.1 °F 18.2 °F 17.1 °F 75% 30.15 in 10.0 mi NE 4.6 mph - N/A   Clear
4:53 AM 24.1 °F 15.2 °F 17.1 °F 75% 30.14 in 10.0 mi NE 8.1 mph - N/A   Clear
5:53 AM 23.0 °F 15.8 °F 17.1 °F 78% 30.14 in 10.0 mi NE 5.8 mph - N/A   Clear
6:53 AM 24.1 °F 17.0 °F 17.1 °F 75% 30.16 in 10.0 mi ENE 5.8 mph - N/A   Clear
7:53 AM 24.1 °F 16.0 °F 18.0 °F 77% 30.16 in 10.0 mi NE 6.9 mph - N/A   Clear
8:53 AM 27.0 °F 19.5 °F 19.0 °F 72% 30.16 in 10.0 mi ENE 6.9 mph - N/A   Clear
9:53 AM 28.9 °F 21.1 °F 19.0 °F 67% 30.17 in 10.0 mi ENE 8.1 mph - N/A   Partly Cloudy
10:14 AM 28.4 °F 18.0 °F 19.4 °F 69% 30.15 in 10.0 mi East 12.7 mph - N/A   Mostly Cloudy
10:53 AM 30.9 °F 20.7 °F 19.0 °F 61% 30.16 in 10.0 mi NNE 13.8 mph - N/A   Overcast
11:53 AM 32.0 °F 20.5 °F 19.9 °F 61% 30.14 in 10.0 mi NNE 18.4 mph 23.0 mph N/A   Mostly Cloudy
12:53 PM 33.1 °F 23.4 °F 19.9 °F 59% 30.12 in 10.0 mi NE 13.8 mph - N/A   Mostly Cloudy
1:53 PM 34.0 °F 22.7 °F 19.9 °F 56% 30.12 in 10.0 mi North 19.6 mph 25.3 mph N/A   Mostly Cloudy
2:53 PM 32.0 °F 20.8 °F 21.0 °F 64% 30.10 in 10.0 mi NNE 17.3 mph - N/A   Overcast
3:53 PM 32.0 °F 20.8 °F 19.9 °F 61% 30.09 in 10.0 mi NE 17.3 mph - N/A   Mostly Cloudy
4:25 PM 30.2 °F 18.5 °F 19.4 °F 64% 30.08 in 10.0 mi NNE 17.3 mph 24.2 mph N/A   Scattered Clouds
4:53 PM 30.9 °F 20.2 °F 19.9 °F 64% 30.10 in 10.0 mi NE 15.0 mph - N/A   Mostly Cloudy
5:53 PM 30.0 °F 20.5 °F 19.9 °F 66% 30.12 in 10.0 mi NE 11.5 mph - N/A   Mostly Cloudy
6:09 PM 30.2 °F 19.3 °F 19.4 °F 64% 30.10 in 10.0 mi NE 15.0 mph - N/A   Scattered Clouds
6:53 PM 28.9 °F 20.4 °F 19.0 °F 67% 30.13 in 10.0 mi NE 9.2 mph - N/A   Clear
7:53 PM 28.0 °F 20.8 °F 19.9 °F 72% 30.15 in 10.0 mi NE 6.9 mph - N/A   Clear
8:53 PM 28.0 °F 20.8 °F 19.9 °F 72% 30.16 in 10.0 mi NE 6.9 mph - N/A   Clear
9:53 PM 25.0 °F 18.1 °F 19.0 °F 78% 30.18 in 10.0 mi NE 5.8 mph - N/A   Clear
10:53 PM 24.1 °F 17.0 °F 19.0 °F 81% 30.19 in 10.0 mi NNE 5.8 mph - N/A   Clear
11:53 PM 23.0 °F 17.0 °F 18.0 °F 81% 30.20 in 10.0 mi North 4.6 mph - N/A   Clear